Milford, UT

5:06 PM MST on February 07, 2016 (GMT -0700)
Milford Municipal

Weather History for KMLF - December, 2012

Change the Weather History Date:

Friday, December 7, 2012

  Actual Average (KCDC) Record (KCDC)
Temperature  
Mean Temperature 37 °F 30 °F  
Max Temperature 48 °F 43 °F 67 °F (1959)
Min Temperature 26 °F 17 °F -15 °F (1951)
Degree Days  
Heating Degree Days 28 35  
Month to date heating degree days 242  
Since 1 July heating degree days 1684  
Cooling Degree Days 0 0  
Month to date cooling degree days 0  
Year to date cooling degree days 588  
Moisture  
Dew Point 26 °F    
Average Humidity 65    
Maximum Humidity 92    
Minimum Humidity 25    
Precipitation  
Precipitation 0.00 in 0.03 in 0.59 in (1982)
Month to date precipitation 0.18  
Year to date precipitation 10.65  
Sea Level Pressure  
Sea Level Pressure 30.03 in    
Wind  
Wind Speed 7 mph (NNW)    
Max Wind Speed 14 mph    
Max Gust Speed 20 mph    
Visibility 10 miles    
Events      
T = Trace of Precipitation, MM = Missing Value Source: NWS Daily Summary

Daily Weather History Graph

Daily Weather History Graph

Search for Another Location

Airport or City:

Trip Planner

Search our weather history database for the weather conditions in past years. The results will help you decide how hot, cold, wet, or windy it might be!

Date:

Astronomy

Dec. 07, 2012 Rise Set
Actual Time 7:36 AM MST 5:11 PM MST
Civil Twilight 7:06 AM MST 5:40 PM MST
Nautical Twilight 6:33 AM MST 6:13 PM MST
Astronomical Twilight 6:01 AM MST 6:45 PM MST
Moon 1:03 AM MST (12/7) 1:06 PM MST (12/7)
Length of Visible Light 10h 33m
Length of Day
9h 34m
Last Quarter, 38% of the Moon is Illuminated
Dec 7
Last Quarter
Dec 13
New
Dec 19
First Quarter
Dec 28
Full
Jan 4
Last Quarter

Hourly Weather History & Observations

Time (MST) Temp. Windchill Dew Point Humidity Pressure Visibility Wind Dir Wind Speed Gust Speed Precip Events Conditions
12:52 AM 37.9 °F 34.4 °F 32.0 °F 79% 29.94 in 10.0 mi NW 4.6 mph - N/A   Mostly Cloudy
1:52 AM 33.1 °F 26.9 °F 28.9 °F 85% 29.95 in 10.0 mi SSW 6.9 mph - N/A   Mostly Cloudy
2:52 AM 32.0 °F 24.8 °F 28.9 °F 88% 29.96 in 10.0 mi SW 8.1 mph - N/A   Partly Cloudy
3:52 AM 30.0 °F 26.5 °F 27.0 °F 88% 29.98 in 10.0 mi SSE 3.5 mph - N/A   Mostly Cloudy
4:52 AM 28.0 °F 22.8 °F 25.0 °F 88% 30.01 in 10.0 mi North 4.6 mph - N/A   Scattered Clouds
5:52 AM 28.0 °F 20.8 °F 26.1 °F 92% 30.05 in 10.0 mi North 6.9 mph - N/A   Scattered Clouds
6:52 AM 36.0 °F 29.0 °F 33.1 °F 89% 30.06 in 10.0 mi North 9.2 mph - N/A   Mostly Cloudy
7:52 AM 36.0 °F 27.5 °F 32.0 °F 86% 30.07 in 10.0 mi NNW 12.7 mph - N/A   Scattered Clouds
8:52 AM 37.9 °F 30.0 °F 33.1 °F 83% 30.08 in 10.0 mi North 12.7 mph - N/A   Scattered Clouds
9:52 AM 41.0 °F 33.5 °F 32.0 °F 70% 30.09 in 10.0 mi North 13.8 mph - N/A   Overcast
10:52 AM 42.1 °F 34.9 °F 28.9 °F 60% 30.11 in 10.0 mi North 13.8 mph - N/A   Overcast
11:52 AM 46.0 °F 41.0 °F 28.0 °F 50% 30.09 in 10.0 mi North 10.4 mph - N/A   Overcast
12:52 PM 46.9 °F - 24.1 °F 41% 30.05 in 10.0 mi NNW 9.2 mph 18.4 mph N/A   Clear
1:52 PM 48.0 °F - 23.0 °F 37% 30.04 in 10.0 mi NNE 8.1 mph 19.6 mph N/A   Clear
2:52 PM 48.0 °F - 21.9 °F 36% 30.02 in 10.0 mi North 8.1 mph - N/A   Clear
3:52 PM 48.0 °F - 21.9 °F 36% 30.03 in 10.0 mi NNW 9.2 mph - N/A   Clear
4:52 PM 43.0 °F 38.2 °F 21.9 °F 43% 30.05 in 10.0 mi North 8.1 mph - N/A   Clear
5:52 PM 37.9 °F - 21.9 °F 53% 30.07 in 10.0 mi Calm Calm - N/A   Clear
6:52 PM 34.0 °F 29.8 °F 21.9 °F 61% 30.05 in 10.0 mi NW 4.6 mph - N/A   Clear
7:52 PM 35.1 °F - 23.0 °F 61% 30.04 in 10.0 mi Calm Calm - N/A   Clear
8:52 PM 34.0 °F - 23.0 °F 64% 30.03 in 10.0 mi Calm Calm - N/A   Clear
9:52 PM 30.9 °F 27.5 °F 23.0 °F 72% 30.03 in 10.0 mi SSW 3.5 mph - N/A   Clear
10:52 PM 28.9 °F 21.9 °F 21.9 °F 75% 30.02 in 10.0 mi SSW 6.9 mph - N/A   Clear
11:52 PM 28.0 °F 18.6 °F 21.9 °F 78% 30.00 in 10.0 mi South 10.4 mph - N/A   Clear